TimeEDT,TemperatureF,Dew PointF,Humidity,Sea Level PressureIn,VisibilityMPH,Wind Direction,Wind SpeedMPH,Gust SpeedMPH,PrecipitationIn,Events,Conditions,WindDirDegrees,DateUTC
12:15 AM,32.9,19.4,58,30.10,10.0,SW,5.8,-,N/A,,Clear,230,2013-03-15 04:15:00
12:35 AM,33.1,20.1,59,30.09,10.0,WSW,6.9,-,N/A,,Clear,240,2013-03-15 04:35:00
12:55 AM,33.8,21.2,60,30.09,10.0,WSW,8.1,-,N/A,,Scattered Clouds,240,2013-03-15 04:55:00
1:15 AM,34.0,22.1,62,30.08,10.0,WSW,8.1,-,N/A,,Mostly Cloudy,250,2013-03-15 05:15:00
1:35 AM,34.0,22.8,64,30.08,10.0,WSW,6.9,-,N/A,,Overcast,250,2013-03-15 05:35:00
1:55 AM,33.8,23.0,65,30.07,10.0,WSW,6.9,-,N/A,,Mostly Cloudy,240,2013-03-15 05:55:00
2:15 AM,33.3,23.2,67,30.07,10.0,WSW,5.8,-,N/A,,Scattered Clouds,240,2013-03-15 06:15:00
2:35 AM,32.9,23.0,67,30.06,10.0,WSW,8.1,-,N/A,,Scattered Clouds,240,2013-03-15 06:35:00
2:55 AM,33.1,23.2,67,30.05,10.0,WSW,5.8,-,N/A,,Mostly Cloudy,240,2013-03-15 06:55:00
3:15 AM,33.3,23.5,68,30.05,10.0,WSW,4.6,-,N/A,,Overcast,240,2013-03-15 07:15:00
3:35 AM,33.4,23.7,68,30.04,10.0,WSW,5.8,-,N/A,,Mostly Cloudy,240,2013-03-15 07:35:00
3:55 AM,32.9,23.9,69,30.03,10.0,WSW,6.9,-,N/A,,Scattered Clouds,240,2013-03-15 07:55:00
4:15 AM,32.5,24.3,72,30.02,10.0,SW,5.8,-,N/A,,Clear,230,2013-03-15 08:15:00
4:35 AM,32.2,24.4,73,30.01,10.0,SW,4.6,-,N/A,,Clear,230,2013-03-15 08:35:00
4:55 AM,32.0,24.6,74,30.00,10.0,SW,8.1,-,N/A,,Clear,230,2013-03-15 08:55:00
5:15 AM,32.4,25.5,76,29.99,10.0,SW,9.2,-,N/A,,Scattered Clouds,230,2013-03-15 09:15:00
5:35 AM,32.9,27.0,79,29.99,10.0,WSW,10.4,16.1,N/A,,Mostly Cloudy,240,2013-03-15 09:35:00
5:55 AM,32.9,27.5,81,29.98,10.0,WSW,9.2,-,N/A,,Overcast,240,2013-03-15 09:55:00
6:15 AM,33.1,28.2,82,29.98,10.0,WSW,10.4,-,N/A,,Overcast,250,2013-03-15 10:15:00
6:35 AM,33.3,28.8,84,29.98,7.0,WSW,11.5,17.3,N/A,,Overcast,250,2013-03-15 10:35:00
6:55 AM,33.4,28.8,83,29.97,7.0,WSW,6.9,-,N/A,,Overcast,240,2013-03-15 10:55:00
7:15 AM,32.9,28.4,84,29.96,7.0,WSW,9.2,-,N/A,,Scattered Clouds,240,2013-03-15 11:15:00
7:35 AM,32.5,28.4,85,29.95,7.0,WSW,8.1,-,N/A,,Clear,240,2013-03-15 11:35:00
7:55 AM,32.2,28.6,87,29.95,7.0,WSW,5.8,-,N/A,,Clear,240,2013-03-15 11:55:00
8:15 AM,32.4,28.9,87,29.95,5.0,WSW,8.1,-,N/A,,Scattered Clouds,250,2013-03-15 12:15:00
8:35 AM,32.5,29.1,87,29.95,5.0,WSW,9.2,-,N/A,,Scattered Clouds,240,2013-03-15 12:35:00
8:55 AM,32.9,29.3,87,29.95,5.0,WSW,9.2,-,N/A,,Scattered Clouds,240,2013-03-15 12:55:00
9:15 AM,33.3,29.3,85,29.95,5.0,WSW,6.9,16.1,N/A,,Scattered Clouds,240,2013-03-15 13:15:00
9:35 AM,33.6,29.3,84,29.94,5.0,SW,10.4,-,N/A,,Haze,230,2013-03-15 13:35:00
9:55 AM,34.2,29.5,83,29.94,5.0,SW,8.1,-,N/A,,Haze,230,2013-03-15 13:55:00
10:15 AM,35.1,29.7,81,29.93,7.0,WSW,9.2,-,N/A,,Scattered Clouds,240,2013-03-15 14:15:00
10:35 AM,36.3,30.2,78,29.93,7.0,West,9.2,-,N/A,,Mostly Cloudy,260,2013-03-15 14:35:00
10:55 AM,36.5,30.0,77,29.93,7.0,West,10.4,-,N/A,,Mostly Cloudy,260,2013-03-15 14:55:00
11:15 AM,36.9,30.0,76,29.92,7.0,WSW,6.9,16.1,N/A,,Overcast,250,2013-03-15 15:15:00
11:35 AM,37.0,30.2,76,29.92,7.0,West,10.4,-,N/A,,Overcast,270,2013-03-15 15:35:00
11:55 AM,37.8,30.2,74,29.92,7.0,West,10.4,-,N/A,,Overcast,260,2013-03-15 15:55:00
12:15 PM,38.3,30.4,73,29.91,7.0,West,8.1,-,N/A,,Mostly Cloudy,260,2013-03-15 16:15:00
12:35 PM,39.0,30.6,72,29.92,7.0,West,11.5,16.1,N/A,,Mostly Cloudy,270,2013-03-15 16:35:00
12:55 PM,39.4,30.9,72,29.92,7.0,West,10.4,-,N/A,,Mostly Cloudy,270,2013-03-15 16:55:00
1:15 PM,40.5,31.1,69,29.91,7.0,West,8.1,-,N/A,,Mostly Cloudy,270,2013-03-15 17:15:00
1:35 PM,41.2,31.3,68,29.91,7.0,West,9.2,-,N/A,,Mostly Cloudy,260,2013-03-15 17:35:00
1:55 PM,41.9,31.6,67,29.91,10.0,West,9.2,-,N/A,,Scattered Clouds,270,2013-03-15 17:55:00
2:15 PM,42.3,31.6,66,29.90,10.0,West,9.2,-,N/A,,Mostly Cloudy,280,2013-03-15 18:15:00
2:35 PM,43.2,32.0,65,29.88,7.0,West,4.6,-,N/A,,Mostly Cloudy,280,2013-03-15 18:35:00
2:55 PM,43.7,32.0,63,29.88,10.0,West,6.9,-,N/A,,Mostly Cloudy,260,2013-03-15 18:55:00
3:15 PM,44.1,32.0,63,29.87,10.0,WSW,8.1,-,N/A,,Mostly Cloudy,250,2013-03-15 19:15:00
3:35 PM,44.8,32.2,61,29.87,10.0,West,8.1,-,N/A,,Mostly Cloudy,260,2013-03-15 19:35:00
3:55 PM,44.2,32.0,62,29.87,10.0,West,8.1,-,N/A,,Overcast,270,2013-03-15 19:55:00
4:15 PM,44.2,32.4,63,29.87,10.0,WNW,8.1,-,N/A,,Overcast,290,2013-03-15 20:15:00
4:35 PM,44.6,32.7,63,29.86,10.0,West,8.1,-,N/A,,Overcast,280,2013-03-15 20:35:00
4:55 PM,44.8,32.7,63,29.86,10.0,West,8.1,-,N/A,,Overcast,270,2013-03-15 20:55:00
5:15 PM,44.8,32.9,63,29.86,10.0,West,5.8,-,N/A,,Overcast,270,2013-03-15 21:15:00
5:35 PM,44.6,33.4,65,29.86,7.0,West,8.1,-,N/A,,Overcast,270,2013-03-15 21:35:00
5:55 PM,44.1,33.8,67,29.86,7.0,West,8.1,-,N/A,,Light Drizzle,270,2013-03-15 21:55:00
6:15 PM,43.7,35.1,72,29.86,7.0,West,4.6,-,N/A,,Light Drizzle,280,2013-03-15 22:15:00
6:35 PM,43.7,36.3,75,29.86,5.0,Calm,Calm,-,N/A,,Drizzle,0,2013-03-15 22:35:00
6:55 PM,43.5,36.5,76,29.86,5.0,WNW,3.5,-,N/A,,Drizzle,300,2013-03-15 22:55:00
7:15 PM,42.6,36.9,80,29.86,5.0,Calm,Calm,-,N/A,,Drizzle,0,2013-03-15 23:15:00
7:35 PM,42.6,37.0,81,29.86,5.0,Calm,Calm,-,N/A,,Drizzle,0,2013-03-15 23:35:00
7:55 PM,41.0,37.4,87,29.87,5.0,Calm,Calm,-,N/A,Rain,Rain,0,2013-03-15 23:55:00
8:15 PM,39.7,36.0,86,29.87,4.0,NE,5.8,-,N/A,Rain,Light Rain,50,2013-03-16 00:15:00
8:35 PM,38.7,35.2,87,29.87,4.0,NE,5.8,-,N/A,Rain,Rain,50,2013-03-16 00:35:00
8:55 PM,38.3,34.7,87,29.87,4.0,NE,3.5,-,N/A,Rain,Rain,50,2013-03-16 00:55:00
9:15 PM,37.9,34.9,89,29.87,3.0,ENE,3.5,-,N/A,,Drizzle,60,2013-03-16 01:15:00
9:35 PM,37.2,34.2,89,29.87,2.5,ENE,4.6,-,N/A,Rain,Light Rain,60,2013-03-16 01:35:00
9:55 PM,36.5,33.8,90,29.87,2.5,ENE,4.6,-,N/A,Rain,Light Rain,70,2013-03-16 01:55:00
10:15 PM,36.1,33.6,91,29.86,2.5,East,3.5,-,N/A,Rain,Light Rain,80,2013-03-16 02:15:00
10:35 PM,35.8,33.3,91,29.86,3.0,East,4.6,-,N/A,Rain,Light Rain,90,2013-03-16 02:35:00
10:55 PM,35.6,33.1,91,29.86,2.5,ENE,3.5,-,N/A,Rain,Light Rain,60,2013-03-16 02:55:00
11:15 PM,35.6,32.9,90,29.85,2.5,East,4.6,-,N/A,Rain,Light Rain,100,2013-03-16 03:15:00
11:35 PM,35.2,32.9,91,29.85,2.5,ENE,3.5,-,N/A,,Light Drizzle,70,2013-03-16 03:35:00
11:55 PM,35.2,32.9,91,29.83,2.5,ESE,5.8,-,N/A,,Drizzle,110,2013-03-16 03:55:00